START_TIME,STEP,MOV.,H8,t_acc.,H43,t_acc.,M25,t_acc.,H9,t_acc.
1979-07-14 15:00:53.770 ,0,0,0.,12.0,0.,12.0,0.,12.0,0.,12.0
1979-07-14 15:01:05.770 ,0,0,0.,12.0,0.,12.0,0.,12.0,0.,12.0
1979-07-14 15:01:17.770 ,0,0,0.,12.0,0.,12.0,0.,12.0,0.,12.0
1979-07-14 15:01:29.770 ,0,0,0.,12.0,0.,12.0,0.,12.0,0.,12.0
1979-07-14 15:01:41.770 ,3,0,1.,12.0,0.,12.0,0.,12.0,0.,12.0
1979-07-14 15:01:53.770 ,3,0,0.,12.0,0.,12.0,0.,12.0,0.,12.0
1979-07-14 15:02:05.770 ,3,0,0.,12.0,0.,12.0,0.,12.0,0.,12.0
1979-07-14 15:02:17.770 ,3,0,0.,12.0,0.,12.0,0.,12.0,0.,12.0
1979-07-14 15:02:29.770 ,4,0,0.,12.0,0.,12.0,0.,12.0,0.,12.0
1979-07-14 15:02:41.770 ,4,0,0.,12.0,0.,12.0,0.,12.0,0.,12.0
1979-07-14 15:02:53.770 ,4,0,0.,12.0,0.,12.0,0.,12.0,0.,12.0
1979-07-14 15:03:05.770 ,4,0,0.,12.0,0.,12.0,0.,12.0,0.,12.0
1979-07-14 15:03:17.770 ,5,0,0.,12.0,0.,12.0,0.,12.0,0.,12.0
1979-07-14 15:03:29.770 ,5,0,0.,12.0,0.,12.0,0.,12.0,0.,12.0
1979-07-14 15:03:41.770 ,5,0,0.,12.0,0.,12.0,0.,12.0,0.,12.0
1979-07-14 15:03:53.770 ,5,0,0.,12.0,0.,12.0,0.,12.0,0.,12.0
1979-07-14 15:04:05.770 ,6,0,0.,12.0,0.,12.0,0.,12.0,0.,12.0
1979-07-14 15:04:17.770 ,6,0,0.,12.0,0.,12.0,0.,12.0,0.,12.0
1979-07-14 15:04:29.770 ,6,0,0.,12.0,0.,12.0,0.,12.0,0.,12.0
1979-07-14 15:04:41.770 ,6,0,0.,12.0,0.,12.0,0.,12.0,0.,12.0
1979-07-14 15:04:53.770 ,7,0,0.,12.0,0.,12.0,0.,12.0,0.,12.0
1979-07-14 15:05:05.770 ,7,0,0.,12.0,0.,12.0,0.,12.0,0.,12.0
1979-07-14 15:05:17.770 ,7,0,0.,12.0,0.,12.0,0.,12.0,0.,12.0
1979-07-14 15:05:29.770 ,7,0,0.,12.0,0.,12.0,0.,12.0,0.,12.0
1979-07-14 15:05:41.770 ,7,0,0.,12.0,0.,12.0,0.,12.0,0.,12.0
1979-07-14 15:05:53.770 ,7,0,0.,12.0,0.,12.0,0.,12.0,0.,12.0
1979-07-14 15:06:05.770 ,7,0,0.,12.0,0.,12.0,0.,12.0,0.,12.0
1979-07-14 15:06:17.770 ,7,0,0.,12.0,0.,12.0,0.,12.0,0.,12.0
1979-07-14 15:06:29.770 ,6,0,0.,12.0,0.,12.0,0.,12.0,0.,12.0
1979-07-14 15:06:41.770 ,6,0,0.,12.0,0.,12.0,0.,12.0,0.,12.0
1979-07-14 15:06:53.770 ,6,0,0.,12.0,0.,12.0,0.,12.0,0.,12.0
1979-07-14 15:07:05.770 ,6,0,0.,12.0,0.,12.0,0.,12.0,0.,12.0
1979-07-14 15:07:17.770 ,5,0,0.,12.0,0.,12.0,0.,12.0,0.,12.0
1979-07-14 15:07:29.770 ,5,0,0.,12.0,0.,12.0,0.,12.0,0.,12.0
1979-07-14 15:07:41.770 ,5,0,0.,12.0,0.,12.0,0.,12.0,0.,12.0
1979-07-14 15:07:53.770 ,5,0,0.,12.0,0.,12.0,0.,12.0,0.,12.0
1979-07-14 15:08:05.770 ,4,0,0.,12.0,0.,12.0,0.,12.0,0.,12.0
1979-07-14 15:08:17.770 ,4,0,0.,12.0,0.,12.0,0.,12.0,0.,12.0
1979-07-14 15:09:17.770 ,0,0,0.,12.0,0.,12.0,0.,12.0,0.,12.0
1979-07-14 15:09:29.770 ,0,0,0.,12.0,0.,12.0,0.,12.0,0.,12.0
1979-07-14 15:09:41.770 ,2,0,0.,12.0,0.,12.0,0.,12.0,0.,12.0
1979-07-14 15:09:53.770 ,2,0,0.,12.0,0.,12.0,0.,12.0,0.,12.0
1979-07-14 15:10:05.770 ,2,0,0.,12.0,0.,12.0,0.,12.0,0.,12.0
1979-07-14 15:10:17.770 ,2,0,0.,12.0,0.,12.0,0.,12.0,0.,12.0
1979-07-14 15:10:29.770 ,1,0,0.,12.0,0.,12.0,0.,12.0,0.,12.0
1979-07-14 15:10:41.770 ,1,0,0.,12.0,0.,12.0,0.,12.0,0.,12.0
1979-07-14 15:10:53.770 ,1,0,0.,12.0,0.,12.0,0.,12.0,0.,12.0
1979-07-14 15:11:05.770 ,1,0,0.,12.0,0.,12.0,0.,12.0,0.,12.0
1979-07-14 15:11:17.770 ,0,0,0.,12.0,0.,12.0,0.,12.0,0.,12.0
1979-07-14 15:11:29.770 ,0,0,0.,12.0,0.,12.0,0.,12.0,0.,12.0
1979-07-14 15:11:41.770 ,0,0,0.,12.0,0.,12.0,0.,12.0,0.,12.0
1979-07-14 15:11:53.770 ,0,0,0.,12.0,0.,12.0,0.,12.0,0.,12.0
1979-07-14 15:12:05.770 ,0,0,0.,12.0,0.,12.0,0.,12.0,0.,12.0
1979-07-14 15:12:17.770 ,0,0,0.,12.0,0.,12.0,0.,12.0,0.,12.0
1979-07-14 15:12:29.770 ,0,0,0.,12.0,0.,12.0,0.,12.0,0.,12.0
1979-07-14 15:12:41.770 ,0,0,0.,12.0,0.,12.0,0.,12.0,0.,12.0
1979-07-14 15:12:53.770 ,1,0,0.,12.0,0.,12.0,0.,12.0,0.,12.0
1979-07-14 15:13:05.770 ,1,0,0.,12.0,0.,12.0,0.,12.0,0.,12.0
1979-07-14 15:13:17.770 ,1,0,0.,12.0,0.,12.0,0.,12.0,0.,12.0
1979-07-14 15:13:29.770 ,1,0,0.,12.0,0.,12.0,0.,12.0,0.,12.0
1979-07-14 15:13:41.770 ,2,0,0.,12.0,0.,12.0,0.,12.0,0.,12.0
1979-07-14 15:13:53.770 ,2,0,0.,12.0,0.,12.0,0.,12.0,0.,12.0
1979-07-14 15:14:05.770 ,2,0,0.,12.0,0.,12.0,0.,12.0,0.,12.0
1979-07-14 15:14:17.770 ,2,0,0.,12.0,0.,12.0,0.,12.0,0.,12.0
1979-07-14 15:14:29.770 ,3,0,0.,12.0,0.,12.0,0.,12.0,0.,12.0
1979-07-14 15:14:41.770 ,3,0,0.,12.0,0.,12.0,0.,12.0,0.,12.0
1979-07-14 15:14:53.770 ,3,0,0.,12.0,0.,12.0,0.,12.0,0.,12.0
1979-07-14 15:15:05.770 ,3,0,0.,12.0,0.,12.0,0.,12.0,0.,12.0
1979-07-14 15:15:17.770 ,4,0,0.,12.0,0.,12.0,0.,12.0,0.,12.0
1979-07-14 15:15:29.770 ,4,0,0.,12.0,0.,12.0,0.,12.0,0.,12.0
1979-07-14 15:15:41.770 ,4,0,0.,12.0,0.,12.0,0.,12.0,0.,12.0
1979-07-14 15:15:53.770 ,4,0,0.,12.0,0.,12.0,0.,12.0,0.,12.0
1979-07-14 15:16:05.770 ,5,0,0.,12.0,0.,12.0,0.,12.0,0.,12.0
1979-07-14 15:16:17.770 ,5,0,0.,12.0,0.,12.0,0.,12.0,0.,12.0
1979-07-14 15:16:29.770 ,5,0,0.,12.0,0.,12.0,0.,12.0,0.,12.0
1979-07-14 15:16:41.770 ,5,0,0.,12.0,0.,12.0,0.,12.0,0.,12.0
1979-07-14 15:16:53.770 ,6,0,0.,12.0,0.,12.0,0.,12.0,0.,12.0
1979-07-14 15:17:05.770 ,6,0,0.,12.0,0.,12.0,0.,12.0,0.,12.0
1979-07-14 15:17:17.770 ,6,0,0.,12.0,0.,12.0,0.,12.0,0.,12.0
1979-07-14 15:17:29.770 ,6,0,0.,12.0,0.,12.0,0.,12.0,0.,12.0
1979-07-14 15:17:41.770 ,7,0,0.,12.0,0.,12.0,0.,12.0,0.,12.0
1979-07-14 15:17:53.770 ,7,0,0.,12.0,0.,12.0,0.,12.0,0.,12.0
1979-07-14 15:18:05.770 ,7,0,0.,12.0,0.,12.0,0.,12.0,0.,12.0
1979-07-14 15:18:17.770 ,7,0,0.,12.0,0.,12.0,0.,12.0,0.,12.0
1979-07-14 15:18:29.770 ,7,0,0.,12.0,0.,12.0,0.,12.0,0.,12.0
1979-07-14 15:18:41.770 ,7,0,0.,12.0,0.,12.0,0.,12.0,0.,12.0
1979-07-14 15:18:53.770 ,7,0,0.,12.0,0.,12.0,0.,12.0,0.,12.0
1979-07-14 15:19:05.770 ,7,0,0.,12.0,0.,12.0,0.,12.0,0.,12.0
1979-07-14 15:19:17.770 ,6,0,0.,12.0,0.,12.0,0.,12.0,0.,12.0
1979-07-14 15:19:29.770 ,6,0,0.,12.0,0.,12.0,0.,12.0,0.,12.0
1979-07-14 15:19:41.770 ,6,0,1.,12.0,0.,12.0,0.,12.0,0.,12.0
1979-07-14 15:19:53.770 ,6,0,0.,12.0,0.,12.0,0.,12.0,0.,12.0
1979-07-14 15:20:05.770 ,5,0,0.,12.0,0.,12.0,0.,12.0,0.,12.0
1979-07-14 15:20:17.770 ,5,0,0.,12.0,0.,12.0,0.,12.0,0.,12.0
1979-07-14 15:20:29.770 ,5,0,0.,12.0,0.,12.0,0.,12.0,0.,12.0
1979-07-14 15:20:41.770 ,5,0,0.,12.0,0.,12.0,0.,12.0,0.,12.0
1979-07-14 15:20:53.770 ,4,0,0.,12.0,0.,12.0,0.,12.0,0.,12.0
1979-07-14 15:21:05.770 ,4,0,0.,12.0,0.,12.0,0.,12.0,0.,12.0
1979-07-14 15:21:17.770 ,4,0,0.,12.0,0.,12.0,0.,12.0,0.,12.0
1979-07-14 15:21:29.770 ,4,0,0.,12.0,0.,12.0,0.,12.0,0.,12.0
1979-07-14 15:21:41.770 ,3,0,0.,12.0,0.,12.0,0.,12.0,0.,12.0
1979-07-14 15:21:53.770 ,3,0,0.,12.0,0.,12.0,0.,12.0,0.,12.0
1979-07-14 15:22:05.770 ,3,0,0.,12.0,0.,12.0,0.,12.0,0.,12.0
1979-07-14 15:22:17.770 ,3,0,0.,12.0,0.,12.0,0.,12.0,0.,12.0
1979-07-14 15:22:29.770 ,2,0,0.,12.0,0.,12.0,0.,12.0,0.,12.0
1979-07-14 15:22:41.770 ,2,0,0.,12.0,0.,12.0,0.,12.0,0.,12.0
1979-07-14 15:22:53.770 ,2,0,0.,12.0,0.,12.0,0.,12.0,0.,12.0
1979-07-14 15:23:05.770 ,2,0,0.,12.0,0.,12.0,0.,12.0,0.,12.0
1979-07-14 15:23:17.770 ,1,0,0.,12.0,0.,12.0,0.,12.0,0.,12.0
1979-07-14 15:23:29.770 ,1,0,0.,12.0,0.,12.0,0.,12.0,0.,12.0
1979-07-14 15:23:41.770 ,1,0,0.,12.0,0.,12.0,0.,12.0,0.,12.0
1979-07-14 15:23:53.770 ,1,0,0.,12.0,0.,12.0,0.,12.0,0.,12.0
1979-07-14 15:24:05.770 ,0,0,0.,12.0,0.,12.0,0.,12.0,0.,12.0
1979-07-14 15:24:17.770 ,0,0,0.,12.0,0.,12.0,0.,12.0,1.,12.0
1979-07-14 15:24:29.770 ,0,0,0.,12.0,0.,12.0,0.,12.0,0.,12.0
1979-07-14 15:24:41.770 ,0,0,0.,12.0,0.,12.0,0.,12.0,0.,12.0
1979-07-14 15:25:41.770 ,0,0,0.,12.0,0.,12.0,0.,12.0,0.,12.0
1979-07-14 15:25:53.770 ,0,0,0.,12.0,0.,12.0,0.,12.0,0.,12.0
1979-07-14 15:26:05.770 ,0,0,0.,12.0,0.,12.0,0.,12.0,0.,12.0
1979-07-14 15:26:17.770 ,0,0,0.,12.0,0.,12.0,0.,12.0,0.,12.0
1979-07-14 15:26:29.770 ,2,0,0.,12.0,0.,12.0,0.,12.0,0.,12.0
1979-07-14 15:26:41.770 ,2,0,0.,12.0,0.,12.0,0.,12.0,0.,12.0
1979-07-14 15:26:53.770 ,2,0,0.,12.0,0.,12.0,0.,12.0,0.,12.0
1979-07-14 15:27:05.770 ,2,0,0.,12.0,0.,12.0,0.,12.0,0.,12.0
1979-07-14 15:27:17.770 ,3,0,0.,12.0,0.,12.0,0.,12.0,0.,12.0
1979-07-14 15:27:29.770 ,3,0,0.,12.0,0.,12.0,0.,12.0,0.,12.0
1979-07-14 15:27:41.770 ,3,0,0.,12.0,0.,12.0,0.,12.0,0.,12.0
1979-07-14 15:27:53.770 ,3,0,0.,12.0,0.,12.0,0.,12.0,0.,12.0
1979-07-14 15:28:05.770 ,4,0,0.,12.0,0.,12.0,0.,12.0,0.,12.0
1979-07-14 15:28:17.770 ,4,0,0.,12.0,0.,12.0,0.,12.0,0.,12.0
1979-07-14 15:28:29.770 ,4,0,0.,12.0,0.,12.0,0.,12.0,0.,12.0
1979-07-14 15:28:41.770 ,4,0,0.,12.0,0.,12.0,0.,12.0,0.,12.0
1979-07-14 15:28:53.770 ,5,0,0.,12.0,0.,12.0,0.,12.0,0.,12.0
1979-07-14 15:29:05.770 ,5,0,0.,12.0,0.,12.0,0.,12.0,0.,12.0
1979-07-14 15:29:17.770 ,5,0,0.,12.0,0.,12.0,0.,12.0,0.,12.0
1979-07-14 15:29:29.770 ,5,0,0.,12.0,0.,12.0,0.,12.0,0.,12.0
1979-07-14 15:29:41.770 ,6,0,0.,12.0,0.,12.0,0.,12.0,0.,12.0
1979-07-14 15:29:53.770 ,6,0,0.,12.0,0.,12.0,0.,12.0,0.,12.0
1979-07-14 15:30:05.770 ,6,0,0.,12.0,0.,12.0,0.,12.0,0.,12.0
1979-07-14 15:30:17.770 ,6,0,0.,12.0,0.,12.0,0.,12.0,0.,12.0
1979-07-14 15:30:29.770 ,7,0,0.,12.0,0.,12.0,0.,12.0,0.,12.0
1979-07-14 15:30:41.770 ,7,0,0.,12.0,0.,12.0,0.,12.0,0.,12.0
1979-07-14 15:30:53.770 ,7,0,0.,12.0,0.,12.0,0.,12.0,0.,12.0
1979-07-14 15:31:05.770 ,7,0,0.,12.0,0.,12.0,0.,12.0,0.,12.0
1979-07-14 15:31:17.770 ,3,1,0.,12.0,0.,12.0,0.,12.0,0.,12.0
1979-07-14 15:31:29.770 ,3,1,0.,12.0,0.,12.0,0.,12.0,0.,12.0
1979-07-14 15:31:41.770 ,0,1,0.,12.0,0.,12.0,0.,12.0,0.,12.0
1979-07-14 15:31:53.770 ,0,1,0.,12.0,0.,12.0,0.,12.0,0.,12.0
1979-07-14 15:32:05.770 ,4,1,0.,12.0,0.,12.0,0.,12.0,0.,12.0
1979-07-14 15:32:17.770 ,4,1,0.,12.0,0.,12.0,0.,12.0,0.,12.0
1979-07-14 15:32:29.770 ,7,1,0.,12.0,0.,12.0,0.,12.0,0.,12.0
1979-07-14 15:32:41.770 ,7,1,0.,12.0,0.,12.0,0.,12.0,0.,12.0
1979-07-14 15:32:53.770 ,3,1,0.,12.0,0.,12.0,0.,12.0,0.,12.0
1979-07-14 15:33:05.770 ,3,1,0.,12.0,0.,12.0,0.,12.0,0.,12.0
1979-07-14 15:33:17.770 ,0,1,0.,12.0,0.,12.0,0.,12.0,0.,12.0
1979-07-14 15:33:29.770 ,0,1,0.,12.0,0.,12.0,0.,12.0,0.,12.0
1979-07-14 15:33:41.770 ,4,1,0.,12.0,0.,12.0,0.,12.0,0.,12.0
1979-07-14 15:33:53.770 ,4,1,0.,12.0,0.,12.0,0.,12.0,0.,12.0
1979-07-14 15:34:05.770 ,7,1,0.,12.0,0.,12.0,0.,12.0,0.,12.0
1979-07-14 15:34:17.770 ,7,1,0.,12.0,0.,12.0,0.,12.0,0.,12.0
1979-07-14 15:34:29.770 ,3,1,0.,12.0,0.,12.0,0.,12.0,0.,12.0
1979-07-14 15:34:41.770 ,3,1,0.,12.0,0.,12.0,0.,12.0,0.,12.0
1979-07-14 15:34:53.770 ,0,1,0.,12.0,0.,12.0,0.,12.0,0.,12.0
1979-07-14 15:35:05.770 ,0,1,0.,12.0,0.,12.0,0.,12.0,0.,12.0
1979-07-14 15:35:17.770 ,4,1,0.,12.0,0.,12.0,0.,12.0,0.,12.0
1979-07-14 15:35:29.770 ,4,1,0.,12.0,0.,12.0,0.,12.0,0.,12.0
1979-07-14 15:35:41.770 ,7,1,1.,12.0,0.,12.0,0.,12.0,0.,12.0
1979-07-14 15:35:53.770 ,7,1,0.,12.0,0.,12.0,0.,12.0,0.,12.0
1979-07-14 15:36:05.770 ,3,1,0.,12.0,0.,12.0,0.,12.0,0.,12.0
1979-07-14 15:36:17.770 ,3,1,0.,12.0,0.,12.0,0.,12.0,0.,12.0
1979-07-14 15:36:29.770 ,0,1,0.,12.0,0.,12.0,0.,12.0,0.,12.0
1979-07-14 15:36:41.770 ,0,1,0.,12.0,0.,12.0,0.,12.0,0.,12.0
1979-07-14 15:36:53.770 ,4,1,0.,12.0,0.,12.0,0.,12.0,0.,12.0
1979-07-14 15:37:05.770 ,4,1,0.,12.0,0.,12.0,0.,12.0,0.,12.0
1979-07-14 15:37:17.770 ,7,1,0.,12.0,0.,12.0,0.,12.0,0.,12.0
1979-07-14 15:37:29.770 ,7,1,0.,12.0,0.,12.0,0.,12.0,0.,12.0
1979-07-14 15:37:41.770 ,3,1,0.,12.0,0.,12.0,0.,12.0,0.,12.0
1979-07-14 15:37:53.770 ,3,1,0.,12.0,0.,12.0,0.,12.0,0.,12.0
1979-07-14 15:38:05.770 ,0,1,0.,12.0,0.,12.0,0.,12.0,0.,12.0
1979-07-14 15:38:17.770 ,0,1,0.,12.0,0.,12.0,0.,12.0,0.,12.0
1979-07-14 15:38:29.770 ,4,1,0.,12.0,0.,12.0,0.,12.0,0.,12.0
1979-07-14 15:38:41.770 ,4,1,0.,12.0,0.,12.0,0.,12.0,0.,12.0
1979-07-14 15:38:53.770 ,7,1,0.,12.0,0.,12.0,0.,12.0,0.,12.0
1979-07-14 15:39:05.770 ,7,1,0.,12.0,0.,12.0,0.,12.0,0.,12.0
1979-07-14 15:39:17.770 ,3,1,0.,12.0,0.,12.0,0.,12.0,0.,12.0
1979-07-14 15:39:29.770 ,3,1,0.,12.0,0.,12.0,0.,12.0,0.,12.0
1979-07-14 15:39:41.770 ,0,1,0.,12.0,0.,12.0,0.,12.0,0.,12.0
1979-07-14 15:39:53.770 ,0,1,0.,12.0,0.,12.0,0.,12.0,0.,12.0
1979-07-14 15:40:05.770 ,4,1,0.,12.0,0.,12.0,0.,12.0,0.,12.0
1979-07-14 15:40:17.770 ,4,1,0.,12.0,0.,12.0,0.,12.0,0.,12.0
1979-07-14 15:40:29.770 ,7,1,0.,12.0,0.,12.0,0.,12.0,0.,12.0
1979-07-14 15:40:41.770 ,7,1,0.,12.0,0.,12.0,0.,12.0,0.,12.0
1979-07-14 15:40:53.770 ,3,1,0.,12.0,0.,12.0,0.,12.0,0.,12.0
1979-07-14 15:41:05.770 ,3,1,0.,12.0,0.,12.0,0.,12.0,0.,12.0
1979-07-14 15:41:17.770 ,0,1,0.,12.0,0.,12.0,0.,12.0,0.,12.0
1979-07-14 15:41:29.770 ,0,1,0.,12.0,0.,12.0,0.,12.0,0.,12.0
1979-07-14 15:41:41.770 ,0,0,0.,12.0,0.,12.0,0.,12.0,0.,12.0
1979-07-14 15:41:53.770 ,0,0,0.,12.0,0.,12.0,0.,12.0,0.,12.0
1979-07-14 15:42:05.770 ,0,0,0.,12.0,0.,12.0,0.,12.0,0.,12.0
1979-07-14 15:42:17.770 ,0,0,0.,12.0,0.,12.0,0.,12.0,0.,12.0
1979-07-14 15:42:29.770 ,5,0,0.,12.0,0.,12.0,0.,12.0,0.,12.0
1979-07-14 15:42:41.770 ,5,0,0.,12.0,0.,12.0,0.,12.0,0.,12.0
1979-07-14 15:42:53.770 ,5,0,0.,12.0,0.,12.0,0.,12.0,0.,12.0
1979-07-14 15:43:05.770 ,5,0,0.,12.0,0.,12.0,0.,12.0,0.,12.0
1979-07-14 15:43:17.770 ,4,0,1.,12.0,0.,12.0,0.,12.0,0.,12.0
1979-07-14 15:43:29.770 ,4,0,0.,12.0,0.,12.0,0.,12.0,0.,12.0
1979-07-14 15:43:41.770 ,4,0,0.,12.0,0.,12.0,0.,12.0,0.,12.0
1979-07-14 15:43:53.770 ,4,0,0.,12.0,0.,12.0,0.,12.0,0.,12.0
1979-07-14 15:44:05.770 ,3,0,0.,12.0,0.,12.0,0.,12.0,0.,12.0
1979-07-14 15:44:17.770 ,3,0,0.,12.0,0.,12.0,0.,12.0,0.,12.0
1979-07-14 15:44:29.770 ,3,0,0.,12.0,0.,12.0,0.,12.0,0.,12.0
1979-07-14 15:44:41.770 ,3,0,0.,12.0,0.,12.0,0.,12.0,0.,12.0
1979-07-14 15:44:53.770 ,0,0,0.,12.0,0.,12.0,0.,12.0,0.,12.0
1979-07-14 15:45:05.770 ,0,0,,0,,0,,0,,0
1979-07-14 15:45:17.770 ,0,0,,0,,0,,0,,0
1979-07-14 15:45:29.770 ,0,0,,0,,0,,0,,0
1979-07-14 15:46:29.770 ,0,0,0.,12.0,0.,12.0,0.,12.0,0.,12.0
1979-07-14 15:46:41.770 ,0,0,0.,12.0,0.,12.0,0.,12.0,0.,12.0
1979-07-14 15:46:53.770 ,0,0,0.,12.0,0.,12.0,0.,12.0,0.,12.0
1979-07-14 15:47:05.770 ,0,0,0.,12.0,0.,12.0,0.,12.0,0.,12.0
1979-07-14 15:47:17.770 ,0,0,0.,12.0,0.,12.0,0.,12.0,0.,12.0
1979-07-14 15:47:29.770 ,0,0,0.,12.0,0.,12.0,0.,12.0,0.,12.0
1979-07-14 15:47:41.770 ,0,0,0.,12.0,0.,12.0,0.,12.0,0.,12.0
1979-07-14 15:47:53.770 ,0,0,0.,12.0,0.,12.0,0.,12.0,0.,12.0
1979-07-14 15:48:05.770 ,1,0,0.,12.0,0.,12.0,0.,12.0,0.,12.0
1979-07-14 15:48:17.770 ,1,0,0.,12.0,0.,12.0,0.,12.0,0.,12.0
1979-07-14 15:48:29.770 ,1,0,0.,12.0,0.,12.0,0.,12.0,0.,12.0
1979-07-14 15:48:41.770 ,1,0,0.,12.0,0.,12.0,0.,12.0,0.,12.0
1979-07-14 15:48:53.770 ,2,0,0.,12.0,0.,12.0,0.,12.0,0.,12.0
1979-07-14 15:49:05.770 ,2,0,0.,12.0,0.,12.0,0.,12.0,0.,12.0
1979-07-14 15:49:17.770 ,2,0,0.,12.0,0.,12.0,0.,12.0,0.,12.0
1979-07-14 15:49:29.770 ,2,0,0.,12.0,0.,12.0,0.,12.0,0.,12.0
1979-07-14 15:49:41.770 ,3,0,0.,12.0,0.,12.0,0.,12.0,0.,12.0
1979-07-14 15:49:53.770 ,3,0,0.,12.0,0.,12.0,0.,12.0,0.,12.0
1979-07-14 15:50:05.770 ,3,0,0.,12.0,0.,12.0,0.,12.0,0.,12.0
1979-07-14 15:50:17.770 ,3,0,0.,12.0,0.,12.0,0.,12.0,0.,12.0
1979-07-14 15:50:29.770 ,4,0,0.,12.0,0.,12.0,0.,12.0,0.,12.0
1979-07-14 15:50:41.770 ,4,0,0.,12.0,0.,12.0,0.,12.0,0.,12.0
1979-07-14 15:50:53.770 ,4,0,0.,12.0,0.,12.0,0.,12.0,0.,12.0
1979-07-14 15:51:05.770 ,4,0,0.,12.0,0.,12.0,0.,12.0,0.,12.0
1979-07-14 15:51:17.770 ,5,0,0.,12.0,0.,12.0,0.,12.0,0.,12.0
1979-07-14 15:51:29.770 ,5,0,0.,12.0,0.,12.0,0.,12.0,0.,12.0
1979-07-14 15:51:41.770 ,5,0,0.,12.0,0.,12.0,0.,12.0,0.,12.0
1979-07-14 15:51:53.770 ,5,0,0.,12.0,0.,12.0,0.,12.0,0.,12.0
1979-07-14 15:52:05.770 ,6,0,0.,12.0,0.,12.0,0.,12.0,0.,12.0
1979-07-14 15:52:17.770 ,6,0,0.,12.0,0.,12.0,0.,12.0,0.,12.0
1979-07-14 15:52:29.770 ,6,0,0.,12.0,0.,12.0,0.,12.0,0.,12.0
1979-07-14 15:52:41.770 ,6,0,0.,12.0,0.,12.0,0.,12.0,0.,12.0
1979-07-14 15:52:53.770 ,7,0,0.,12.0,0.,12.0,0.,12.0,0.,12.0
1979-07-14 15:53:05.770 ,7,0,0.,12.0,0.,12.0,0.,12.0,0.,12.0
1979-07-14 15:53:17.770 ,7,0,0.,12.0,0.,12.0,0.,12.0,0.,12.0
1979-07-14 15:53:29.770 ,7,0,0.,12.0,0.,12.0,0.,12.0,0.,12.0
1979-07-14 15:53:41.770 ,7,0,0.,12.0,0.,12.0,0.,12.0,0.,12.0
1979-07-14 15:53:53.770 ,7,0,0.,12.0,0.,12.0,0.,12.0,0.,12.0
1979-07-14 15:54:05.770 ,7,0,0.,12.0,0.,12.0,0.,12.0,0.,12.0
1979-07-14 15:54:17.770 ,7,0,0.,12.0,0.,12.0,0.,12.0,0.,12.0
1979-07-14 15:54:29.770 ,6,0,0.,12.0,0.,12.0,0.,12.0,0.,12.0
1979-07-14 15:54:41.770 ,6,0,0.,12.0,0.,12.0,0.,12.0,0.,12.0
1979-07-14 15:54:53.770 ,6,0,0.,12.0,0.,12.0,0.,12.0,0.,12.0
1979-07-14 15:55:05.770 ,6,0,0.,12.0,0.,12.0,0.,12.0,0.,12.0
1979-07-14 15:55:17.770 ,5,0,0.,12.0,0.,12.0,0.,12.0,0.,12.0
1979-07-14 15:55:29.770 ,5,0,0.,12.0,0.,12.0,0.,12.0,0.,12.0
1979-07-14 15:55:41.770 ,5,0,0.,12.0,0.,12.0,0.,12.0,0.,12.0
1979-07-14 15:55:53.770 ,5,0,0.,12.0,0.,12.0,0.,12.0,0.,12.0
1979-07-14 15:56:05.770 ,4,0,0.,12.0,0.,12.0,0.,12.0,0.,12.0
1979-07-14 15:56:17.770 ,4,0,0.,12.0,0.,12.0,0.,12.0,0.,12.0
1979-07-14 15:56:29.770 ,4,0,0.,12.0,0.,12.0,0.,12.0,0.,12.0
1979-07-14 15:56:41.770 ,4,0,0.,12.0,0.,12.0,0.,12.0,0.,12.0
1979-07-14 15:56:53.770 ,3,0,0.,12.0,0.,12.0,0.,12.0,0.,12.0
1979-07-14 15:57:05.770 ,3,0,0.,12.0,0.,12.0,0.,12.0,0.,12.0
1979-07-14 15:57:17.770 ,3,0,0.,12.0,0.,12.0,0.,12.0,0.,12.0
1979-07-14 15:57:29.770 ,3,0,0.,12.0,0.,12.0,0.,12.0,0.,12.0
1979-07-14 15:57:41.770 ,2,0,0.,12.0,0.,12.0,0.,12.0,0.,12.0
1979-07-14 15:57:53.770 ,2,0,0.,12.0,0.,12.0,0.,12.0,0.,12.0
1979-07-14 15:58:05.770 ,2,0,0.,12.0,0.,12.0,0.,12.0,0.,12.0
1979-07-14 15:58:17.770 ,2,0,1.,12.0,0.,12.0,0.,12.0,0.,12.0
1979-07-14 15:58:29.770 ,1,0,0.,12.0,0.,12.0,0.,12.0,0.,12.0
1979-07-14 15:58:41.770 ,1,0,0.,12.0,0.,12.0,0.,12.0,0.,12.0
1979-07-14 15:58:53.770 ,1,0,0.,12.0,0.,12.0,0.,12.0,0.,12.0
1979-07-14 15:59:05.770 ,1,0,0.,12.0,0.,12.0,0.,12.0,0.,12.0
1979-07-14 15:59:17.770 ,0,0,0.,12.0,0.,12.0,0.,12.0,0.,12.0
1979-07-14 15:59:29.770 ,0,0,0.,12.0,0.,12.0,0.,12.0,0.,12.0
1979-07-14 15:59:41.770 ,0,0,0.,12.0,0.,12.0,0.,12.0,0.,12.0
1979-07-14 15:59:53.770 ,0,0,0.,12.0,0.,12.0,0.,12.0,0.,12.0
1979-07-14 16:00:05.770 ,0,0,0.,12.0,0.,12.0,0.,12.0,0.,12.0
1979-07-14 16:00:17.770 ,0,0,0.,12.0,0.,12.0,0.,12.0,0.,12.0
1979-07-14 16:00:29.770 ,0,0,0.,12.0,0.,12.0,0.,12.0,0.,12.0
1979-07-14 16:00:41.770 ,0,0,0.,12.0,0.,12.0,0.,12.0,0.,12.0
1979-07-14 16:00:53.770 ,1,0,0.,12.0,0.,12.0,0.,12.0,0.,12.0
1979-07-14 16:01:05.770 ,1,0,0.,12.0,0.,12.0,0.,12.0,0.,12.0
1979-07-14 16:01:17.770 ,1,0,0.,12.0,0.,12.0,0.,12.0,0.,12.0
1979-07-14 16:01:29.770 ,1,0,0.,12.0,0.,12.0,0.,12.0,0.,12.0
1979-07-14 16:01:41.770 ,2,0,0.,12.0,0.,12.0,0.,12.0,0.,12.0
1979-07-14 16:01:53.770 ,2,0,0.,12.0,0.,12.0,0.,12.0,0.,12.0
1979-07-14 16:02:05.770 ,2,0,0.,12.0,0.,12.0,0.,12.0,0.,12.0
1979-07-14 16:02:17.770 ,2,0,0.,12.0,0.,12.0,0.,12.0,0.,12.0
1979-07-14 16:02:29.770 ,3,0,0.,12.0,0.,12.0,0.,12.0,0.,12.0
1979-07-14 16:02:41.770 ,3,0,0.,12.0,0.,12.0,0.,12.0,0.,12.0
1979-07-14 16:02:53.770 ,3,0,0.,12.0,0.,12.0,0.,12.0,0.,12.0
1979-07-14 16:03:05.770 ,3,0,0.,12.0,0.,12.0,0.,12.0,0.,12.0
1979-07-14 16:03:17.770 ,4,0,0.,12.0,0.,12.0,0.,12.0,0.,12.0
1979-07-14 16:03:29.770 ,4,0,0.,12.0,0.,12.0,0.,12.0,0.,12.0
1979-07-14 16:03:41.770 ,4,0,0.,12.0,0.,12.0,0.,12.0,0.,12.0
1979-07-14 16:03:53.770 ,4,0,0.,12.0,0.,12.0,0.,12.0,0.,12.0
1979-07-14 16:04:05.770 ,5,0,0.,12.0,0.,12.0,0.,12.0,0.,12.0
1979-07-14 16:04:17.770 ,5,0,0.,12.0,0.,12.0,0.,12.0,0.,12.0
1979-07-14 16:04:29.770 ,5,0,0.,12.0,0.,12.0,0.,12.0,0.,12.0
1979-07-14 16:04:41.770 ,5,0,0.,12.0,0.,12.0,0.,12.0,0.,12.0
1979-07-14 16:04:53.770 ,6,0,0.,12.0,0.,12.0,0.,12.0,0.,12.0
1979-07-14 16:05:05.770 ,6,0,0.,12.0,0.,12.0,0.,12.0,0.,12.0
1979-07-14 16:05:17.770 ,6,0,0.,12.0,0.,12.0,0.,12.0,0.,12.0
1979-07-14 16:05:29.770 ,6,0,0.,12.0,0.,12.0,0.,12.0,0.,12.0
1979-07-14 16:05:41.770 ,7,0,0.,12.0,0.,12.0,0.,12.0,0.,12.0
1979-07-14 16:05:53.770 ,7,0,0.,12.0,0.,12.0,0.,12.0,0.,12.0
1979-07-14 16:06:05.770 ,7,0,0.,12.0,0.,12.0,0.,12.0,0.,12.0
1979-07-14 16:06:17.770 ,7,0,0.,12.0,0.,12.0,0.,12.0,0.,12.0
1979-07-14 16:06:29.770 ,7,0,0.,12.0,0.,12.0,0.,12.0,0.,12.0
1979-07-14 16:06:41.770 ,7,0,0.,12.0,0.,12.0,0.,12.0,0.,12.0
1979-07-14 16:06:53.770 ,7,0,0.,12.0,0.,12.0,0.,12.0,0.,12.0
1979-07-14 16:07:05.770 ,7,0,0.,12.0,0.,12.0,0.,12.0,0.,12.0
1979-07-14 16:07:17.770 ,6,0,0.,12.0,0.,12.0,0.,12.0,0.,12.0
1979-07-14 16:07:29.770 ,6,0,0.,12.0,0.,12.0,0.,12.0,0.,12.0
1979-07-14 16:07:41.770 ,6,0,0.,12.0,0.,12.0,0.,12.0,0.,12.0
1979-07-14 16:07:53.770 ,6,0,0.,12.0,0.,12.0,0.,12.0,0.,12.0
1979-07-14 16:08:05.770 ,5,0,0.,12.0,0.,12.0,0.,12.0,0.,12.0
1979-07-14 16:08:17.770 ,5,0,0.,12.0,0.,12.0,0.,12.0,0.,12.0
1979-07-14 16:08:29.770 ,5,0,0.,12.0,0.,12.0,0.,12.0,0.,12.0
1979-07-14 16:08:41.770 ,5,0,0.,12.0,0.,12.0,0.,12.0,0.,12.0
1979-07-14 16:08:53.770 ,4,0,0.,12.0,0.,12.0,0.,12.0,0.,12.0
1979-07-14 16:09:05.770 ,4,0,0.,12.0,0.,12.0,0.,12.0,0.,12.0
1979-07-14 16:09:17.770 ,4,0,0.,12.0,0.,12.0,0.,12.0,0.,12.0
1979-07-14 16:09:29.770 ,4,0,0.,12.0,0.,12.0,0.,12.0,0.,12.0
1979-07-14 16:09:41.770 ,3,0,0.,12.0,0.,12.0,0.,12.0,0.,12.0
1979-07-14 16:09:53.770 ,3,0,0.,12.0,0.,12.0,0.,12.0,0.,12.0
1979-07-14 16:10:05.770 ,3,0,0.,12.0,0.,12.0,0.,12.0,0.,12.0
1979-07-14 16:10:17.770 ,3,0,0.,12.0,0.,12.0,0.,12.0,0.,12.0
1979-07-14 16:10:29.770 ,2,0,0.,12.0,0.,12.0,0.,12.0,0.,12.0
1979-07-14 16:10:41.770 ,2,0,0.,12.0,0.,12.0,0.,12.0,0.,12.0
1979-07-14 16:10:53.770 ,2,0,0.,12.0,0.,12.0,0.,12.0,0.,12.0
1979-07-14 16:11:05.770 ,2,0,0.,12.0,0.,12.0,0.,12.0,0.,12.0
1979-07-14 16:11:17.770 ,1,0,0.,12.0,0.,12.0,0.,12.0,0.,12.0
1979-07-14 16:11:29.770 ,1,0,0.,12.0,0.,12.0,0.,12.0,0.,12.0
1979-07-14 16:11:41.770 ,1,0,0.,12.0,0.,12.0,0.,12.0,0.,12.0
1979-07-14 16:11:53.770 ,1,0,0.,12.0,0.,12.0,0.,12.0,0.,12.0
1979-07-14 16:12:05.770 ,0,0,0.,12.0,0.,12.0,0.,12.0,0.,12.0
1979-07-14 16:12:17.770 ,0,0,0.,12.0,0.,12.0,0.,12.0,0.,12.0
1979-07-14 16:12:29.770 ,0,0,0.,12.0,0.,12.0,0.,12.0,0.,12.0
1979-07-14 16:12:41.770 ,0,0,0.,12.0,0.,12.0,0.,12.0,0.,12.0
1979-07-14 16:12:53.770 ,0,0,0.,12.0,0.,12.0,0.,12.0,0.,12.0
1979-07-14 16:13:05.770 ,0,0,0.,12.0,0.,12.0,0.,12.0,0.,12.0
1979-07-14 16:13:17.770 ,0,0,0.,12.0,0.,12.0,0.,12.0,0.,12.0
1979-07-14 16:13:29.770 ,0,0,0.,12.0,0.,12.0,0.,12.0,0.,12.0
1979-07-14 16:13:41.770 ,1,0,0.,12.0,0.,12.0,0.,12.0,0.,12.0
1979-07-14 16:13:53.770 ,1,0,0.,12.0,0.,12.0,0.,12.0,0.,12.0
1979-07-14 16:14:05.770 ,1,0,0.,12.0,0.,12.0,0.,12.0,0.,12.0
1979-07-14 16:14:17.770 ,1,0,0.,12.0,0.,12.0,0.,12.0,0.,12.0
1979-07-14 16:14:29.770 ,2,0,0.,12.0,0.,12.0,0.,12.0,0.,12.0
1979-07-14 16:14:41.770 ,2,0,0.,12.0,0.,12.0,0.,12.0,0.,12.0
1979-07-14 16:14:53.770 ,2,0,0.,12.0,0.,12.0,0.,12.0,0.,12.0
1979-07-14 16:15:05.770 ,2,0,0.,12.0,0.,12.0,0.,12.0,0.,12.0
1979-07-14 16:15:17.770 ,3,0,0.,12.0,0.,12.0,0.,12.0,0.,12.0
1979-07-14 16:15:29.770 ,3,0,0.,12.0,0.,12.0,0.,12.0,0.,12.0
1979-07-14 16:15:41.770 ,3,0,0.,12.0,0.,12.0,0.,12.0,0.,12.0
1979-07-14 16:15:53.770 ,3,0,0.,12.0,0.,12.0,0.,12.0,0.,12.0
1979-07-14 16:16:05.770 ,4,0,0.,12.0,0.,12.0,0.,12.0,0.,12.0
1979-07-14 16:16:17.770 ,4,0,0.,12.0,0.,12.0,0.,12.0,0.,12.0
1979-07-14 16:16:29.770 ,4,0,0.,12.0,0.,12.0,0.,12.0,0.,12.0
1979-07-14 16:16:41.770 ,4,0,0.,12.0,0.,12.0,0.,12.0,0.,12.0
1979-07-14 16:16:53.770 ,5,0,0.,12.0,0.,12.0,0.,12.0,0.,12.0
1979-07-14 16:17:05.770 ,5,0,0.,12.0,0.,12.0,0.,12.0,0.,12.0
1979-07-14 16:17:17.770 ,5,0,0.,12.0,0.,12.0,0.,12.0,0.,12.0
1979-07-14 16:17:29.770 ,5,0,0.,12.0,0.,12.0,0.,12.0,0.,12.0
1979-07-14 16:17:41.770 ,6,0,0.,12.0,0.,12.0,0.,12.0,0.,12.0
1979-07-14 16:17:53.770 ,6,0,0.,12.0,0.,12.0,0.,12.0,0.,12.0
1979-07-14 16:18:05.770 ,6,0,0.,12.0,0.,12.0,0.,12.0,0.,12.0
1979-07-14 16:18:17.770 ,6,0,0.,12.0,0.,12.0,0.,12.0,0.,12.0
1979-07-14 16:18:29.770 ,7,0,0.,12.0,0.,12.0,0.,12.0,0.,12.0
1979-07-14 16:18:41.770 ,7,0,0.,12.0,0.,12.0,0.,12.0,0.,12.0
1979-07-14 16:18:53.770 ,7,0,0.,12.0,0.,12.0,0.,12.0,0.,12.0
1979-07-14 16:19:05.770 ,7,0,0.,12.0,0.,12.0,0.,12.0,0.,12.0
1979-07-14 16:19:17.770 ,3,1,0.,12.0,0.,12.0,0.,12.0,0.,12.0
1979-07-14 16:19:29.770 ,3,1,0.,12.0,0.,12.0,0.,12.0,0.,12.0
1979-07-14 16:19:41.770 ,0,1,0.,12.0,0.,12.0,0.,12.0,0.,12.0
1979-07-14 16:19:53.770 ,0,1,0.,12.0,0.,12.0,0.,12.0,0.,12.0
1979-07-14 16:20:05.770 ,4,1,0.,12.0,0.,12.0,0.,12.0,0.,12.0
1979-07-14 16:20:17.770 ,4,1,0.,12.0,0.,12.0,0.,12.0,0.,12.0
1979-07-14 16:20:29.770 ,7,1,0.,12.0,0.,12.0,0.,12.0,0.,12.0